Tracking 18945 objects as of 20-Jan-2018
HD Live streaming from Space Station
objects crossing your sky now

FENGYUN 1C DEB

Track FENGYUN 1C DEB now!
10-day predictions


NORAD ID: 30336
Int'l Code: 1999-025AAX
Perigee: 813.8 km
Apogee: 878.7 km
Inclination: 98.9 °
Period: 101.7 minutes
Semi major axis: 7217 km
RCS: 0.026 m2 (small)
Launch date: May 10, 1999
Source: People's Republic of China (PRC)
Launch site: Taiyaun Space Center, China (TSC)

Note: This is SATELLITE DEBRIS
aabbcc
Your satellite tracking list
Your tracking list is empty




NASA's NSSDC Master Catalog

Two Line Element Set (TLE):
1 30336U 99025AAX 18020.57442951  .00000115  00000-0  80579-4 0  9998
2 30336  98.9128  49.9447 0044956 341.8644 170.9516 14.15953249568156
Source of the keplerian elements: AFSPC